Terminal Aerodrome Forecast
Issued by NWS

Home | Current Version | Previous Version | Text Only | Print | Product List | Glossary On
Versions: 1 2 3 4 5 6 7 8 9 10 11 12 13 14 15 16 17 18 19 20 21 22
000
FTUS41 KALY 212100 AAA
TAFPSF
TAF AMD
KPSF 212129Z 2121/2218 11004KT P6SM SCT015 OVC030
      TEMPO 2121/2123 4SM -SHRA BR BKN009 OVC015
     FM212300 VRB03KT 4SM -SHRA BR SCT008 OVC015
      TEMPO 2123/2202 2SM -RA BR OVC009
     FM220400 00000KT 2SM -SHRA BR OVC008
     FM221200 VRB03KT P6SM VCSH SCT008 OVC015=

USA.gov is the U.S. government's official web portal to all federal, state and local government web resources and services.